| time (UTC) | temp F | wind direction | speed knots | gust knots | rain 1hr in | rain 24hr in | rain mn in | humidity % | barometer mb |
| 20260902050007 | 60 | 0 | 0.0 | 0.0 | 0.00 | 0.00 | 0.00 | 76 | 1017.5 |
| 20260902045403 | 60 | 0 | 0.0 | 0.0 | 0.00 | 0.00 | 0.00 | 76 | 1017.5 |
| 20260902044503 | 60 | 55 | 0.0 | 0.9 | 0.00 | 0.00 | 0.00 | 76 | 1017.4 |
| 20260902043605 | 61 | 46 | 0.0 | 0.9 | 0.00 | 0.00 | 0.00 | 76 | 1017.5 |
| 20260902042705 | 61 | 46 | 0.0 | 0.9 | 0.00 | 0.00 | 0.00 | 76 | 1017.6 |
| 20260902041803 | 61 | 0 | 0.0 | 0.0 | 0.00 | 0.00 | 0.00 | 75 | 1017.7 |
| 20260902040903 | 61 | 279 | 0.0 | 0.9 | 0.00 | 0.00 | 0.00 | 75 | 1017.8 |
| 20260902040004 | 62 | 298 | 0.0 | 0.9 | 0.00 | 0.00 | 0.00 | 75 | 1017.6 |
| 20260902035618 | 62 | 269 | 0.0 | 0.9 | 0.00 | 0.00 | 0.00 | 75 | 1017.8 |
| 20260902034505 | 62 | 269 | 0.0 | 0.9 | 0.00 | 0.00 | 0.00 | 74 | 1017.6 |
| 20260902033604 | 62 | 269 | 0.0 | 0.9 | 0.00 | 0.00 | 0.00 | 74 | 1017.6 |
| 20260902032703 | 62 | 270 | 0.0 | 1.7 | 0.00 | 0.00 | 0.00 | 74 | 1017.4 |
| 20260902031803 | 62 | 69 | 0.0 | 1.7 | 0.00 | 0.00 | 0.00 | 74 | 1017.5 |
| 20260902030906 | 62 | 268 | 0.0 | 0.9 | 0.00 | 0.00 | 0.00 | 73 | 1017.7 |
| 20260902030220 | 62 | 300 | 0.0 | 0.9 | 0.00 | 0.00 | 0.00 | 73 | 1017.5 |
| 20260902025403 | 62 | 266 | 0.0 | 1.7 | 0.00 | 0.00 | 0.00 | 73 | 1017.6 |
| 20260902024504 | 62 | 248 | 0.0 | 1.7 | 0.00 | 0.00 | 0.00 | 73 | 1017.7 |
| 20260902023604 | 62 | 269 | 0.0 | 2.6 | 0.00 | 0.00 | 0.00 | 73 | 1017.8 |
| 20260902022704 | 62 | 268 | 0.0 | 1.7 | 0.00 | 0.00 | 0.00 | 72 | 1017.7 |
| 20260902021805 | 63 | 271 | 0.0 | 0.9 | 0.00 | 0.00 | 0.00 | 72 | 1017.9 |
| 20260902021118 | 63 | 271 | 0.0 | 1.7 | 0.00 | 0.00 | 0.00 | 72 | 1017.7 |
| 20260902020003 | 63 | 289 | 0.0 | 1.7 | 0.00 | 0.00 | 0.00 | 71 | 1017.7 |
| 20260902015404 | 63 | 284 | 0.0 | 1.7 | 0.00 | 0.00 | 0.00 | 71 | 1017.8 |
| 20260902014716 | 63 | 273 | 0.0 | 0.9 | 0.00 | 0.00 | 0.00 | 70 | 1017.7 |
| 20260902013604 | 63 | 300 | 0.0 | 1.7 | 0.00 | 0.00 | 0.00 | 69 | 1017.9 |
| 20260902012704 | 64 | 271 | 0.0 | 1.7 | 0.00 | 0.00 | 0.00 | 69 | 1017.9 |
| 20260902011804 | 64 | 269 | 0.0 | 1.7 | 0.00 | 0.00 | 0.00 | 68 | 1017.9 |
| 20260902011118 | 64 | 267 | 0.0 | 1.7 | 0.00 | 0.00 | 0.00 | 68 | 1017.9 |
| 20260902010219 | 64 | 264 | 0.0 | 1.7 | 0.00 | 0.00 | 0.00 | 67 | 1017.9 |
| 20260902005405 | 64 | 268 | 0.0 | 1.7 | 0.00 | 0.00 | 0.00 | 67 | 1017.7 |
| 20260902004504 | 64 | 302 | 0.0 | 0.9 | 0.00 | 0.00 | 0.00 | 67 | 1017.7 |
| 20260902003604 | 64 | 81 | 0.0 | 1.7 | 0.00 | 0.00 | 0.00 | 66 | 1017.9 |
| 20260902002705 | 64 | 7 | 0.0 | 0.9 | 0.00 | 0.00 | 0.00 | 65 | 1017.8 |
| 20260902002018 | 64 | 80 | 0.0 | 0.9 | 0.00 | 0.00 | 0.00 | 65 | 1017.9 |
| 20260902000904 | 64 | 266 | 0.0 | 0.9 | 0.00 | 0.00 | 0.00 | 65 | 1017.8 |
| 20260902000004 | 64 | 268 | 0.0 | 0.9 | 0.00 | 0.00 | 0.00 | 64 | 1017.9 |
| 20260901235404 | 64 | 267 | 0.0 | 1.7 | 0.00 | 0.00 | 0.00 | 64 | 1017.9 |
| 20260901234506 | 64 | 0 | 0.0 | 0.0 | 0.00 | 0.00 | 0.00 | 64 | 1018.0 |
| 20260901233604 | 64 | 277 | 0.0 | 0.9 | 0.00 | 0.00 | 0.00 | 63 | 1017.8 |
| 20260901232703 | 64 | 0 | 0.0 | 0.0 | 0.00 | 0.00 | 0.00 | 62 | 1017.7 |
| 20260901231808 | 64 | 267 | 0.0 | 0.9 | 0.00 | 0.00 | 0.00 | 61 | 1018.0 |
| 20260901230904 | 65 | 266 | 0.0 | 0.9 | 0.00 | 0.00 | 0.00 | 60 | 1017.9 |
| 20260901230007 | 65 | 0 | 0.0 | 0.0 | 0.00 | 0.00 | 0.00 | 59 | 1017.8 |
| 20260901225403 | 65 | 78 | 0.0 | 0.9 | 0.00 | 0.00 | 0.00 | 58 | 1018.0 |
| 20260901224503 | 65 | 0 | 0.0 | 0.0 | 0.00 | 0.00 | 0.00 | 58 | 1018.1 |
| 20260901223817 | 65 | 82 | 0.0 | 1.7 | 0.00 | 0.00 | 0.00 | 58 | 1018.2 |
| 20260901222703 | 65 | 58 | 0.0 | 0.9 | 0.00 | 0.00 | 0.00 | 58 | 1018.2 |
| 20260901221804 | 65 | 76 | 0.0 | 0.9 | 0.00 | 0.00 | 0.00 | 58 | 1018.1 |
| 20260901220903 | 65 | 76 | 0.0 | 2.6 | 0.00 | 0.00 | 0.00 | 58 | 1017.9 |
| 20260901220003 | 65 | 77 | 0.0 | 1.7 | 0.00 | 0.00 | 0.00 | 58 | 1017.8 |
| 20260901215405 | 65 | 77 | 0.0 | 1.7 | 0.00 | 0.00 | 0.00 | 58 | 1018.0 |
| 20260901214503 | 65 | 77 | 0.0 | 1.7 | 0.00 | 0.00 | 0.00 | 57 | 1018.2 |
| 20260901213604 | 65 | 78 | 0.0 | 1.7 | 0.00 | 0.00 | 0.00 | 56 | 1018.1 |
| 20260901212920 | 66 | 77 | 0.0 | 0.9 | 0.00 | 0.00 | 0.00 | 56 | 1018.1 |
| 20260901211804 | 66 | 72 | 0.0 | 0.9 | 0.00 | 0.00 | 0.00 | 55 | 1018.1 |
| 20260901210903 | 66 | 0 | 0.0 | 0.0 | 0.00 | 0.00 | 0.00 | 55 | 1018.0 |
| 20260901210003 | 66 | 73 | 0.0 | 0.9 | 0.00 | 0.00 | 0.00 | 54 | 1018.1 |
| 20260901205404 | 67 | 0 | 0.0 | 0.0 | 0.00 | 0.00 | 0.00 | 54 | 1018.2 |
| 20260901204504 | 67 | 0 | 0.0 | 0.0 | 0.00 | 0.00 | 0.00 | 54 | 1018.1 |
| 20260901203606 | 67 | 0 | 0.0 | 0.0 | 0.00 | 0.00 | 0.00 | 54 | 1017.9 |
| 20260901202704 | 67 | 0 | 0.0 | 0.0 | 0.00 | 0.00 | 0.00 | 53 | 1018.3 |
| 20260901201803 | 67 | 0 | 0.0 | 0.0 | 0.00 | 0.00 | 0.00 | 53 | 1018.2 |
| 20260901201118 | 67 | 0 | 0.0 | 0.0 | 0.00 | 0.00 | 0.00 | 53 | 1018.3 |
| 20260901200217 | 67 | 0 | 0.0 | 0.0 | 0.00 | 0.00 | 0.00 | 53 | 1018.2 |
| 20260901195405 | 67 | 0 | 0.0 | 0.0 | 0.00 | 0.00 | 0.00 | 53 | 1018.2 |
| 20260901194503 | 67 | 62 | 0.0 | 0.9 | 0.00 | 0.00 | 0.00 | 53 | 1018.1 |
| 20260901193604 | 68 | 60 | 0.0 | 0.9 | 0.00 | 0.00 | 0.00 | 53 | 1018.2 |
| 20260901192703 | 68 | 0 | 0.0 | 0.0 | 0.00 | 0.00 | 0.00 | 52 | 1018.0 |
| 20260901191804 | 68 | 0 | 0.0 | 0.0 | 0.00 | 0.00 | 0.00 | 53 | 1018.3 |
| 20260901190903 | 68 | 0 | 0.0 | 0.0 | 0.00 | 0.00 | 0.00 | 52 | 1018.1 |
| 20260901190003 | 68 | 0 | 0.0 | 0.0 | 0.00 | 0.00 | 0.00 | 52 | 1018.2 |
| 20260901185404 | 68 | 0 | 0.0 | 0.0 | 0.00 | 0.00 | 0.00 | 52 | 1018.1 |
| 20260901184503 | 68 | 0 | 0.0 | 0.0 | 0.00 | 0.00 | 0.00 | 52 | 1018.1 |
| 20260901183605 | 69 | 0 | 0.0 | 0.0 | 0.00 | 0.00 | 0.00 | 52 | 1018.4 |
| 20260901182919 | 69 | 0 | 0.0 | 0.0 | 0.00 | 0.00 | 0.00 | 51 | 1018.1 |
| 20260901181803 | 69 | 0 | 0.0 | 0.0 | 0.00 | 0.00 | 0.00 | 51 | 1018.0 |
| 20260901180904 | 69 | 0 | 0.0 | 0.0 | 0.00 | 0.00 | 0.00 | 50 | 1017.7 |
| 20260901180004 | 69 | 267 | 0.0 | 0.9 | 0.00 | 0.00 | 0.00 | 50 | 1017.8 |
| 20260901175405 | 69 | 267 | 0.0 | 0.9 | 0.00 | 0.00 | 0.00 | 49 | 1017.8 |
| 20260901174504 | 70 | 269 | 0.0 | 0.9 | 0.00 | 0.00 | 0.00 | 49 | 1017.8 |
| 20260901173603 | 70 | 269 | 0.0 | 0.9 | 0.00 | 0.00 | 0.00 | 50 | 1017.8 |
| 20260901172704 | 70 | 268 | 0.0 | 0.9 | 0.00 | 0.00 | 0.00 | 49 | 1018.0 |
| 20260901171803 | 70 | 0 | 0.0 | 0.0 | 0.00 | 0.00 | 0.00 | 48 | 1017.8 |
| 20260901171117 | 70 | 287 | 0.0 | 1.7 | 0.00 | 0.00 | 0.00 | 48 | 1017.7 |
| 20260901170218 | 71 | 268 | 0.0 | 1.7 | 0.00 | 0.00 | 0.00 | 46 | 1017.9 |
| 20260901165404 | 71 | 276 | 0.0 | 1.7 | 0.00 | 0.00 | 0.00 | 46 | 1017.8 |
| 20260901164504 | 71 | 286 | 0.0 | 1.7 | 0.00 | 0.00 | 0.00 | 44 | 1017.8 |
| 20260901163604 | 72 | 266 | 0.0 | 1.7 | 0.00 | 0.00 | 0.00 | 43 | 1018.1 |
| 20260901162703 | 73 | 270 | 0.0 | 2.6 | 0.00 | 0.00 | 0.00 | 42 | 1017.9 |
| 20260901161803 | 74 | 269 | 0.0 | 1.7 | 0.00 | 0.00 | 0.00 | 41 | 1018.3 |
| 20260901160908 | 73 | 270 | 0.0 | 2.6 | 0.00 | 0.00 | 0.00 | 42 | 1018.1 |
| 20260901160004 | 75 | 265 | 0.9 | 3.5 | 0.00 | 0.00 | 0.00 | 40 | 1018.2 |
| 20260901155404 | 75 | 273 | 0.9 | 2.6 | 0.00 | 0.00 | 0.00 | 39 | 1018.2 |
| 20260901154503 | 75 | 267 | 0.9 | 1.7 | 0.00 | 0.00 | 0.00 | 40 | 1018.3 |
| 20260901153818 | 73 | 287 | 0.9 | 2.6 | 0.00 | 0.00 | 0.00 | 42 | 1018.2 |
| 20260901152704 | 74 | 266 | 0.9 | 3.5 | 0.00 | 0.00 | 0.00 | 41 | 1018.4 |
| 20260901151803 | 74 | 265 | 0.9 | 2.6 | 0.00 | 0.00 | 0.00 | 41 | 1018.3 |
| 20260901150903 | 74 | 272 | 0.9 | 5.2 | 0.00 | 0.00 | 0.00 | 42 | 1018.3 |
| 20260901150003 | 74 | 272 | 0.9 | 1.7 | 0.00 | 0.00 | 0.00 | 41 | 1018.4 |
| 20260901145403 | 73 | 271 | 0.9 | 1.7 | 0.00 | 0.00 | 0.00 | 43 | 1018.3 |
| 20260901144503 | 72 | 271 | 0.9 | 3.5 | 0.00 | 0.00 | 0.00 | 43 | 1018.4 |
| 20260901143603 | 73 | 281 | 0.0 | 1.7 | 0.00 | 0.00 | 0.00 | 42 | 1018.4 |
| 20260901142704 | 73 | 272 | 0.9 | 2.6 | 0.00 | 0.00 | 0.00 | 43 | 1018.3 |
| 20260901141803 | 72 | 274 | 0.9 | 3.5 | 0.00 | 0.00 | 0.00 | 44 | 1018.4 |
| 20260901140905 | 72 | 284 | 0.9 | 2.6 | 0.00 | 0.00 | 0.00 | 46 | 1018.4 |
| 20260901140003 | 72 | 318 | 0.0 | 1.7 | 0.00 | 0.00 | 0.00 | 45 | 1018.3 |
| 20260901135404 | 72 | 40 | 0.0 | 2.6 | 0.00 | 0.00 | 0.00 | 45 | 1018.4 |
| 20260901134504 | 72 | 283 | 0.9 | 2.6 | 0.00 | 0.00 | 0.00 | 45 | 1018.2 |
| 20260901133604 | 72 | 274 | 0.9 | 2.6 | 0.00 | 0.00 | 0.00 | 44 | 1018.4 |
| 20260901132703 | 72 | 261 | 0.9 | 2.6 | 0.00 | 0.00 | 0.00 | 45 | 1018.4 |
| 20260901131803 | 71 | 280 | 0.9 | 3.5 | 0.00 | 0.00 | 0.00 | 47 | 1018.4 |
| 20260901130905 | 72 | 278 | 0.9 | 2.6 | 0.00 | 0.00 | 0.00 | 45 | 1018.5 |
| 20260901130006 | 72 | 266 | 0.9 | 2.6 | 0.00 | 0.00 | 0.00 | 46 | 1018.5 |
| 20260901125618 | 72 | 264 | 0.9 | 2.6 | 0.00 | 0.00 | 0.00 | 46 | 1018.6 |
| 20260901124505 | 72 | 254 | 0.0 | 2.6 | 0.00 | 0.00 | 0.00 | 46 | 1018.6 |
| 20260901123605 | 73 | 267 | 0.9 | 2.6 | 0.00 | 0.00 | 0.00 | 43 | 1018.7 |
| 20260901122705 | 72 | 275 | 0.9 | 3.5 | 0.00 | 0.00 | 0.00 | 47 | 1018.6 |
| 20260901121806 | 73 | 300 | 0.9 | 3.5 | 0.00 | 0.00 | 0.00 | 45 | 1018.8 |
| 20260901120903 | 73 | 269 | 0.9 | 2.6 | 0.00 | 0.00 | 0.00 | 46 | 1018.9 |
| 20260901120004 | 72 | 268 | 0.9 | 2.6 | 0.00 | 0.00 | 0.00 | 47 | 1018.7 |
| 20260901115618 | 71 | 273 | 0.9 | 1.7 | 0.00 | 0.00 | 0.00 | 48 | 1018.7 |
| 20260901114719 | 71 | 23 | 0.9 | 3.5 | 0.00 | 0.00 | 0.00 | 49 | 1018.8 |
| 20260901113604 | 70 | 268 | 0.9 | 3.5 | 0.00 | 0.00 | 0.00 | 50 | 1018.8 |
| 20260901112703 | 70 | 319 | 0.9 | 2.6 | 0.00 | 0.00 | 0.00 | 49 | 1019.0 |
| 20260901111805 | 70 | 271 | 0.9 | 3.5 | 0.00 | 0.00 | 0.00 | 52 | 1019.2 |
| 20260901110906 | 69 | 276 | 0.0 | 1.7 | 0.00 | 0.00 | 0.00 | 51 | 1018.9 |
| 20260901110004 | 69 | 286 | 0.0 | 1.7 | 0.00 | 0.00 | 0.00 | 53 | 1018.9 |
| 20260901105405 | 68 | 271 | 0.9 | 2.6 | 0.00 | 0.00 | 0.00 | 52 | 1019.0 |
| 20260901104503 | 68 | 357 | 0.9 | 2.6 | 0.00 | 0.00 | 0.00 | 53 | 1019.0 |
| 20260901103604 | 67 | 299 | 0.9 | 2.6 | 0.00 | 0.00 | 0.00 | 56 | 1019.1 |
| 20260901102704 | 67 | 274 | 0.9 | 3.5 | 0.00 | 0.00 | 0.00 | 55 | 1019.1 |
| 20260901101804 | 67 | 270 | 0.9 | 3.5 | 0.00 | 0.00 | 0.00 | 56 | 1019.2 |
| 20260901100904 | 67 | 264 | 0.9 | 3.5 | 0.00 | 0.00 | 0.00 | 57 | 1019.4 |
| 20260901100003 | 67 | 269 | 0.9 | 2.6 | 0.00 | 0.00 | 0.00 | 58 | 1019.5 |
| 20260901095403 | 67 | 273 | 0.9 | 2.6 | 0.00 | 0.00 | 0.00 | 59 | 1019.4 |
| 20260901094503 | 66 | 274 | 0.9 | 2.6 | 0.00 | 0.00 | 0.00 | 59 | 1019.5 |
| 20260901093605 | 66 | 269 | 0.9 | 2.6 | 0.00 | 0.00 | 0.00 | 59 | 1019.4 |
| 20260901092705 | 66 | 283 | 0.9 | 1.7 | 0.00 | 0.00 | 0.00 | 61 | 1019.3 |
| 20260901092016 | 66 | 275 | 0.9 | 1.7 | 0.00 | 0.00 | 0.00 | 61 | 1019.4 |
| 20260901090904 | 65 | 269 | 0.9 | 2.6 | 0.00 | 0.00 | 0.00 | 61 | 1019.2 |
| 20260901090004 | 66 | 272 | 0.0 | 2.6 | 0.00 | 0.00 | 0.00 | 62 | 1019.2 |
| 20260901085404 | 65 | 271 | 0.9 | 3.5 | 0.00 | 0.00 | 0.00 | 65 | 1019.2 |
| 20260901084504 | 65 | 268 | 0.9 | 2.6 | 0.00 | 0.00 | 0.00 | 65 | 1019.3 |
| 20260901083605 | 66 | 266 | 0.9 | 2.6 | 0.00 | 0.00 | 0.00 | 65 | 1019.2 |
| 20260901082704 | 66 | 262 | 0.0 | 1.7 | 0.00 | 0.00 | 0.00 | 65 | 1019.0 |
| 20260901081803 | 65 | 272 | 0.9 | 2.6 | 0.00 | 0.00 | 0.00 | 68 | 1019.0 |
| 20260901080904 | 64 | 272 | 0.9 | 3.5 | 0.00 | 0.00 | 0.00 | 70 | 1018.9 |
| 20260901080003 | 63 | 271 | 0.0 | 1.7 | 0.00 | 0.00 | 0.00 | 72 | 1018.7 |
| 20260901075404 | 63 | 271 | 0.9 | 1.7 | 0.00 | 0.00 | 0.00 | 72 | 1018.9 |
| 20260901074503 | 62 | 270 | 0.0 | 1.7 | 0.00 | 0.00 | 0.00 | 74 | 1018.6 |
| 20260901073606 | 61 | 269 | 0.0 | 1.7 | 0.00 | 0.00 | 0.00 | 77 | 1018.8 |
| 20260901072704 | 59 | 275 | 0.0 | 1.7 | 0.00 | 0.00 | 0.00 | 80 | 1018.8 |
| 20260901071803 | 58 | 272 | 0.0 | 1.7 | 0.00 | 0.00 | 0.00 | 82 | 1018.8 |
| 20260901070904 | 58 | 264 | 0.0 | 2.6 | 0.00 | 0.00 | 0.00 | 83 | 1018.7 |
| 20260901070003 | 57 | 262 | 0.0 | 2.6 | 0.00 | 0.00 | 0.00 | 83 | 1018.7 |
| 20260901065405 | 57 | 263 | 0.0 | 1.7 | 0.00 | 0.00 | 0.00 | 83 | 1018.7 |
| 20260901064719 | 57 | 268 | 0.0 | 1.7 | 0.00 | 0.00 | 0.00 | 83 | 1018.7 |
| 20260901063604 | 57 | 188 | 0.0 | 1.7 | 0.00 | 0.00 | 0.00 | 84 | 1018.6 |
| 20260901062703 | 56 | 248 | 0.0 | 1.7 | 0.00 | 0.00 | 0.00 | 86 | 1018.5 |
| 20260901061803 | 55 | 265 | 0.0 | 1.7 | 0.00 | 0.00 | 0.00 | 86 | 1018.4 |
| 20260901060904 | 55 | 0 | 0.0 | 0.0 | 0.00 | 0.00 | 0.00 | 86 | 1018.3 |
| 20260901060004 | 55 | 139 | 0.0 | 1.7 | 0.00 | 0.00 | 0.00 | 86 | 1018.3 |
| 20260901055403 | 55 | 249 | 0.0 | 1.7 | 0.00 | 0.00 | 0.00 | 86 | 1018.1 |
| 20260901054504 | 55 | 271 | 0.0 | 1.7 | 0.00 | 0.00 | 0.00 | 86 | 1018.2 |
| 20260901053820 | 55 | 262 | 0.0 | 1.7 | 0.00 | 0.00 | 0.00 | 85 | 1017.9 |
| 20260901052917 | 55 | 261 | 0.0 | 1.7 | 0.00 | 0.00 | 0.00 | 85 | 1017.9 |
| 20260901051803 | 55 | 269 | 0.0 | 0.9 | 0.00 | 0.00 | 0.00 | 85 | 1017.9 |
| 20260901051118 | 55 | 267 | 0.0 | 0.9 | 0.00 | 0.00 | 0.00 | 85 | 1017.6 |